Year,Month,Day,Hour,Minute,Value (Times are PST for temperature in C)
2012,04,26,02,29,10.30
2012,04,26,02,43,10.20
2012,04,26,03,00,10.20
2012,04,26,03,17,10.20
2012,04,26,03,18,10.20
2012,04,26,03,19,10.20
2012,04,26,03,20,10.20
2012,04,26,03,24,10.20
2012,04,26,03,32,10.20
2012,04,26,03,34,10.20
2012,04,26,03,43,10.20
2012,04,26,03,49,10.20
2012,04,26,03,50,10.20
2012,04,26,03,51,10.20
2012,04,26,04,31,10.30
2012,04,26,05,07,10.30
2012,04,26,05,08,10.30
2012,04,26,05,15,10.10
2012,04,26,05,19,10.10
2012,04,26,05,20,10.10
2012,04,26,05,22,10.10
2012,04,26,05,25,10.20
2012,04,26,05,26,10.20
2012,04,26,05,27,10.20
2012,04,26,05,28,10.20
2012,04,26,05,29,10.20
2012,04,26,05,31,10.20
2012,04,26,05,33,10.20
2012,04,26,05,34,10.20
2012,04,26,05,35,10.30
2012,04,26,05,41,10.30
2012,04,26,05,42,10.30
2012,04,26,05,43,10.30
2012,04,26,05,44,10.30
2012,04,26,05,45,10.30
2012,04,26,05,46,10.30
2012,04,26,05,49,10.30
2012,04,26,05,50,10.30
2012,04,26,05,51,10.30
2012,04,26,05,52,10.30
2012,04,26,05,54,10.20
2012,04,26,05,55,10.20
2012,04,26,05,56,10.20
2012,04,26,05,57,10.20
2012,04,26,06,02,10.10
2012,04,26,06,03,10.10
2012,04,26,06,04,10.00
2012,04,26,06,06,10.00
2012,04,26,06,07,10.00
2012,04,26,06,09,9.90
2012,04,26,06,13,9.90
2012,04,26,06,14,9.90
2012,04,26,06,15,9.90
2012,04,26,06,18,9.90
2012,04,26,06,19,9.90
2012,04,26,06,20,9.90
2012,04,26,06,21,9.90
2012,04,26,06,24,9.90
2012,04,26,06,25,9.90
2012,04,26,06,27,9.80
2012,04,26,06,28,9.80
2012,04,26,06,29,9.80
2012,04,26,06,31,9.80
2012,04,26,06,32,9.80
2012,04,26,06,33,9.80
2012,04,26,06,34,9.80
2012,04,26,06,36,9.80
2012,04,26,06,38,9.80
2012,04,26,06,39,9.80
2012,04,26,06,40,9.80
2012,04,26,06,41,9.80
2012,04,26,06,42,9.80
2012,04,26,06,43,9.80
2012,04,26,06,44,9.80
2012,04,26,06,45,9.80
2012,04,26,06,47,9.80
2012,04,26,06,49,9.80
2012,04,26,06,50,9.80
2012,04,26,06,52,9.80
2012,04,26,06,53,9.80
2012,04,26,06,54,9.80
2012,04,26,06,55,9.80
2012,04,26,06,57,9.80
2012,04,26,06,58,9.80
2012,04,26,06,59,9.80
2012,04,26,07,00,9.80
2012,04,26,07,01,9.80
2012,04,26,07,03,9.70
2012,04,26,07,04,9.70
2012,04,26,07,05,9.70
2012,04,26,07,06,9.70
2012,04,26,07,07,9.70
2012,04,26,07,08,9.70
2012,04,26,07,09,9.70
2012,04,26,07,10,9.70
2012,04,26,07,11,9.70
2012,04,26,07,12,9.70
2012,04,26,07,14,9.80
2012,04,26,07,15,9.70
2012,04,26,07,16,9.80
2012,04,26,07,17,9.80
2012,04,26,07,18,9.80
2012,04,26,07,19,9.80
2012,04,26,07,20,9.80
2012,04,26,07,21,9.80
2012,04,26,07,22,9.80
2012,04,26,07,23,9.80
2012,04,26,07,26,9.90
2012,04,26,07,27,9.90
2012,04,26,07,28,9.90
2012,04,26,07,29,9.90
2012,04,26,07,31,9.90
2012,04,26,07,34,10.00
2012,04,26,07,36,10.00
2012,04,26,07,38,10.10
2012,04,26,07,40,10.00
2012,04,26,07,42,10.10
2012,04,26,07,43,10.10
2012,04,26,07,44,10.10
2012,04,26,07,45,10.10
2012,04,26,07,46,10.10
2012,04,26,07,47,10.10
2012,04,26,07,48,10.10
2012,04,26,07,49,10.10
2012,04,26,07,50,10.10
2012,04,26,07,51,10.10
2012,04,26,07,52,10.10
2012,04,26,07,56,10.00
2012,04,26,07,58,10.00
2012,04,26,07,59,10.00
2012,04,26,08,00,9.90
2012,04,26,08,02,9.90
2012,04,26,08,03,9.90
2012,04,26,08,04,10.00
2012,04,26,08,05,10.00
2012,04,26,08,06,10.00
2012,04,26,08,07,10.00
2012,04,26,08,09,10.00
2012,04,26,08,10,10.00
2012,04,26,08,11,10.00
2012,04,26,08,13,10.10
2012,04,26,08,14,10.10
2012,04,26,08,15,10.10
2012,04,26,08,16,10.10
2012,04,26,08,18,10.10
2012,04,26,08,19,10.10
2012,04,26,08,20,10.10
2012,04,26,08,21,10.20
2012,04,26,08,22,10.20
2012,04,26,08,24,10.20
2012,04,26,08,25,10.20
2012,04,26,08,26,10.20
2012,04,26,08,29,10.20
2012,04,26,08,30,10.20
2012,04,26,08,31,10.20
2012,04,26,08,32,10.20
2012,04,26,08,33,10.20
2012,04,26,08,34,10.20
2012,04,26,08,35,10.30
2012,04,26,08,36,10.30
2012,04,26,08,37,10.30
2012,04,26,08,38,10.30
2012,04,26,08,39,10.30
2012,04,26,08,40,10.30
2012,04,26,08,41,10.30
2012,04,26,08,42,10.30
2012,04,26,08,43,10.40
2012,04,26,08,44,10.30
2012,04,26,08,46,10.40
2012,04,26,08,47,10.40
2012,04,26,08,48,10.40
2012,04,26,08,49,10.40
2012,04,26,08,50,10.40
2012,04,26,08,51,10.50
2012,04,26,08,52,10.50
2012,04,26,08,53,10.60
2012,04,26,08,54,10.60
2012,04,26,08,55,10.70
2012,04,26,08,56,10.70
2012,04,26,08,57,10.80
2012,04,26,08,59,10.80
2012,04,26,09,00,10.80
2012,04,26,09,01,10.80
2012,04,26,09,02,10.80
2012,04,26,09,03,10.90
2012,04,26,09,04,10.90
2012,04,26,09,09,10.80
2012,04,26,09,12,10.80
2012,04,26,09,15,10.80
2012,04,26,09,16,10.80
2012,04,26,09,17,10.80
2012,04,26,09,18,10.80
2012,04,26,09,20,10.90
2012,04,26,09,21,10.90
2012,04,26,09,22,10.90
2012,04,26,09,23,10.90
2012,04,26,09,24,10.90
2012,04,26,09,25,10.90
2012,04,26,09,27,10.90
2012,04,26,09,29,10.90
2012,04,26,09,30,10.90
2012,04,26,09,31,10.90
2012,04,26,09,32,10.90
2012,04,26,09,33,11.00
2012,04,26,09,34,11.00
2012,04,26,09,35,10.90
2012,04,26,09,39,11.00
2012,04,26,09,43,10.90
2012,04,26,09,44,10.90
2012,04,26,09,49,10.90
2012,04,26,09,50,10.90
2012,04,26,09,51,11.00
2012,04,26,09,52,11.00
2012,04,26,09,53,11.00
2012,04,26,09,54,11.00
2012,04,26,09,55,11.00
2012,04,26,09,56,10.90
2012,04,26,09,58,10.90
2012,04,26,09,59,10.90
2012,04,26,10,01,10.90
2012,04,26,10,02,10.90
2012,04,26,10,03,10.90
2012,04,26,10,07,10.90
2012,04,26,10,08,10.90
2012,04,26,10,10,10.80
2012,04,26,10,11,10.80
2012,04,26,10,12,10.80
2012,04,26,10,15,10.80
2012,04,26,10,17,10.80
2012,04,26,10,18,10.80
2012,04,26,10,20,10.80
2012,04,26,10,21,10.80
2012,04,26,10,22,10.80
2012,04,26,10,23,10.80
2012,04,26,10,25,10.80
2012,04,26,10,26,10.90
2012,04,26,10,27,10.90
2012,04,26,10,29,10.90
2012,04,26,10,30,10.90
2012,04,26,10,31,10.90
2012,04,26,10,34,11.00
2012,04,26,10,35,11.00
2012,04,26,10,36,11.10
2012,04,26,10,37,11.10
2012,04,26,10,38,11.10
2012,04,26,10,39,11.10
2012,04,26,10,40,11.10
2012,04,26,10,47,11.30
2012,04,26,10,51,11.50
2012,04,26,10,52,11.60
2012,04,26,11,00,11.60
2012,04,26,11,02,11.70
2012,04,26,11,08,11.90
2012,04,26,11,09,11.90
2012,04,26,11,10,11.90
2012,04,26,11,23,12.10
2012,04,26,11,25,12.10
2012,04,26,11,31,12.20
2012,04,26,11,33,12.30
2012,04,26,11,34,12.30
2012,04,26,12,06,12.60
2012,04,26,12,10,12.40
2012,04,26,12,13,12.40
2012,04,26,12,17,12.60
2012,04,26,18,08,13.10
2012,04,26,18,09,13.00
2012,04,26,18,10,13.00
2012,04,26,18,11,12.90
2012,04,26,18,12,12.90
2012,04,26,18,13,12.90
2012,04,26,18,14,12.80
2012,04,26,18,15,12.80
2012,04,26,18,16,12.80
2012,04,26,18,17,12.70
2012,04,26,18,18,12.70
2012,04,26,18,19,12.60
2012,04,26,18,20,12.60
2012,04,26,18,21,12.60
2012,04,26,18,22,12.60
2012,04,26,18,23,12.60
2012,04,26,18,24,12.50
2012,04,26,18,25,12.50
2012,04,26,18,26,12.60
2012,04,26,18,27,12.50
2012,04,26,18,28,12.50
2012,04,26,18,29,12.50
2012,04,26,18,30,12.50
2012,04,26,18,31,12.50
2012,04,26,18,32,12.50
2012,04,26,18,33,12.40
2012,04,26,18,34,12.40
2012,04,26,18,35,12.40
2012,04,26,18,36,12.40
2012,04,26,18,37,12.30
2012,04,26,18,38,12.30
2012,04,26,18,39,12.30
2012,04,26,18,40,12.30
2012,04,26,18,41,12.30
2012,04,26,18,42,12.30
2012,04,26,18,43,12.30
2012,04,26,18,44,12.30
2012,04,26,18,45,12.30
2012,04,26,18,46,12.20
2012,04,26,18,47,12.20
2012,04,26,18,48,12.20
2012,04,26,18,49,12.20
2012,04,26,18,50,12.20
2012,04,26,18,51,12.20
2012,04,26,18,52,12.10
2012,04,26,18,53,12.10
2012,04,26,18,54,12.10
2012,04,26,18,55,12.10
2012,04,26,18,56,12.00
2012,04,26,18,57,12.00
2012,04,26,18,58,12.00
2012,04,26,18,59,12.00
2012,04,26,19,00,12.00
2012,04,26,19,01,11.90
2012,04,26,19,02,11.90
2012,04,26,19,03,11.90
2012,04,26,19,04,11.90
2012,04,26,19,05,11.90
2012,04,26,19,06,11.90
2012,04,26,19,07,11.90
2012,04,26,19,08,11.90
2012,04,26,19,09,11.80
2012,04,26,19,10,11.80
2012,04,26,19,11,11.80
2012,04,26,19,12,11.80
2012,04,26,19,13,11.80
2012,04,26,19,14,11.80
2012,04,26,19,15,11.70
2012,04,26,19,16,11.70
2012,04,26,19,17,11.70
2012,04,26,19,18,11.70
2012,04,26,19,19,11.70
2012,04,26,19,20,11.70
2012,04,26,19,21,11.70
2012,04,26,19,22,11.70
2012,04,26,19,23,11.70
2012,04,26,19,24,11.70
2012,04,26,19,25,11.70
2012,04,26,19,26,11.70
2012,04,26,19,27,11.70
2012,04,26,19,28,11.70
2012,04,26,19,29,11.70
2012,04,26,19,30,11.70
2012,04,26,19,31,11.60
2012,04,26,19,32,11.60
2012,04,26,19,33,11.50
2012,04,26,19,34,11.50
2012,04,26,19,35,11.40
2012,04,26,19,36,11.30
2012,04,26,19,37,11.30
2012,04,26,19,38,11.30
2012,04,26,19,39,11.30
2012,04,26,19,40,11.20
2012,04,26,19,41,11.20
2012,04,26,19,42,11.20
2012,04,26,19,43,11.20
2012,04,26,19,44,11.10
2012,04,26,19,45,11.10
2012,04,26,19,46,11.10
2012,04,26,19,47,11.10
2012,04,26,19,48,11.10
2012,04,26,19,49,11.00
2012,04,26,19,50,11.00
2012,04,26,19,51,11.00
2012,04,26,19,52,10.90
2012,04,26,19,53,10.90
2012,04,26,19,54,10.90
2012,04,26,19,55,10.90
2012,04,26,19,56,10.80
2012,04,26,19,57,10.80
2012,04,26,19,58,10.80
2012,04,26,19,59,10.80
2012,04,26,20,00,10.80
2012,04,26,20,01,10.70
2012,04,26,20,02,10.70
2012,04,26,20,03,10.70
2012,04,26,20,04,10.70
2012,04,26,20,05,10.70
2012,04,26,20,06,10.60
2012,04,26,20,07,10.60
2012,04,26,20,08,10.60
2012,04,26,20,09,10.60
2012,04,26,20,10,10.50
2012,04,26,20,11,10.50
2012,04,26,20,12,10.50
2012,04,26,20,13,10.50
2012,04,26,20,14,10.50
2012,04,26,20,15,10.50
2012,04,26,20,16,10.40
2012,04,26,20,17,10.40
2012,04,26,20,18,10.40
2012,04,26,20,19,10.40
2012,04,26,20,20,10.40
2012,04,26,20,21,10.40
2012,04,26,20,22,10.40
2012,04,26,20,23,10.40
2012,04,26,20,24,10.30
2012,04,26,20,25,10.30
2012,04,26,20,26,10.30
2012,04,26,20,27,10.30
2012,04,26,20,28,10.30
2012,04,26,20,29,10.30
2012,04,26,20,30,10.30
2012,04,26,20,31,10.30
2012,04,26,20,32,10.30
2012,04,26,20,33,10.30
2012,04,26,20,34,10.30
2012,04,26,20,35,10.30
2012,04,26,20,36,10.30
2012,04,26,20,37,10.30
2012,04,26,20,38,10.30
2012,04,26,20,39,10.20
2012,04,26,20,40,10.20
2012,04,26,20,41,10.20
2012,04,26,20,42,10.20
2012,04,26,20,43,10.20
2012,04,26,20,44,10.20
2012,04,26,20,45,10.10
2012,04,26,20,46,10.10
2012,04,26,20,47,10.10
2012,04,26,20,48,10.10
2012,04,26,20,49,10.00
2012,04,26,20,50,10.00
2012,04,26,20,51,10.00
2012,04,26,20,52,10.00
2012,04,26,20,53,9.90
2012,04,26,20,54,9.90
2012,04,26,20,55,9.90
2012,04,26,20,56,9.90
2012,04,26,20,57,9.90
2012,04,26,20,58,9.80
2012,04,26,20,59,9.80
2012,04,26,21,00,9.80
2012,04,26,21,01,9.80
2012,04,26,21,02,9.70
2012,04,26,21,03,9.70
2012,04,26,21,04,9.70
2012,04,26,21,05,9.70
2012,04,26,21,06,9.70
2012,04,26,21,07,9.60
2012,04,26,21,08,9.60
2012,04,26,21,09,9.60
2012,04,26,21,10,9.60
2012,04,26,21,11,9.60
2012,04,26,21,12,9.60
2012,04,26,21,13,9.60
2012,04,26,21,14,9.60
2012,04,26,21,15,9.60
2012,04,26,21,16,9.50
2012,04,26,21,17,9.50
2012,04,26,21,18,9.50
2012,04,26,21,19,9.50
2012,04,26,21,20,9.50
2012,04,26,21,21,9.40
2012,04,26,21,22,9.40
2012,04,26,21,23,9.40
2012,04,26,21,24,9.40
2012,04,26,21,25,9.40
2012,04,26,21,26,9.30
2012,04,26,21,27,9.30
2012,04,26,21,28,9.30
2012,04,26,21,29,9.30
2012,04,26,21,30,9.30
2012,04,26,21,31,9.20
2012,04,26,21,32,9.20
2012,04,26,21,33,9.20
2012,04,26,21,34,9.20
2012,04,26,21,35,9.20
2012,04,26,21,36,9.10
2012,04,26,21,37,9.10
2012,04,26,21,38,9.10
2012,04,26,21,39,9.10
2012,04,26,21,40,9.10
2012,04,26,21,41,9.10
2012,04,26,21,42,9.10
2012,04,26,21,43,9.10
2012,04,26,21,44,9.00
2012,04,26,21,45,9.00
2012,04,26,21,46,9.00
2012,04,26,21,47,9.00
2012,04,26,21,48,9.00
2012,04,26,21,49,9.00
2012,04,26,21,50,9.00
2012,04,26,21,51,9.00
2012,04,26,21,52,9.00
2012,04,26,21,53,9.00
2012,04,26,21,54,9.00
2012,04,26,21,55,8.90
2012,04,26,21,56,8.90
2012,04,26,21,57,8.90
2012,04,26,21,58,8.90
2012,04,26,21,59,8.90
2012,04,26,22,00,8.90
2012,04,26,22,01,8.90
2012,04,26,22,02,8.80
2012,04,26,22,03,8.80
2012,04,26,22,04,8.80
2012,04,26,22,05,8.80
2012,04,26,22,06,8.80
2012,04,26,22,07,8.80
2012,04,26,22,08,8.80
2012,04,26,22,09,8.80
2012,04,26,22,10,8.80
2012,04,26,22,11,8.70
2012,04,26,22,12,8.70
2012,04,26,22,13,8.70
2012,04,26,22,14,8.70
2012,04,26,22,15,8.70
2012,04,26,22,16,8.70
2012,04,26,22,17,8.70
2012,04,26,22,18,8.70
2012,04,26,22,19,8.70
2012,04,26,22,20,8.60
2012,04,26,22,21,8.60
2012,04,26,22,22,8.60
2012,04,26,22,23,8.60
2012,04,26,22,24,8.60
2012,04,26,22,25,8.60
2012,04,26,22,26,8.60
2012,04,26,22,27,8.60
2012,04,26,22,28,8.60
2012,04,26,22,29,8.60
2012,04,26,22,30,8.60
2012,04,26,22,31,8.60
2012,04,26,22,32,8.60
2012,04,26,22,33,8.60
2012,04,26,22,34,8.50
2012,04,26,22,35,8.50
2012,04,26,22,36,8.50
2012,04,26,22,37,8.50
2012,04,26,22,38,8.40
2012,04,26,22,39,8.40
2012,04,26,22,40,8.40
2012,04,26,22,41,8.40
2012,04,26,22,42,8.40
2012,04,26,22,43,8.40
2012,04,26,22,44,8.40
2012,04,26,22,45,8.40
2012,04,26,22,46,8.40
2012,04,26,22,47,8.40
2012,04,26,22,48,8.40
2012,04,26,22,49,8.40
2012,04,26,22,50,8.40
2012,04,26,22,51,8.40
2012,04,26,22,52,8.40
2012,04,26,22,53,8.40
2012,04,26,22,54,8.40
2012,04,26,22,55,8.40
2012,04,26,22,56,8.40
2012,04,26,22,57,8.40
2012,04,26,22,58,8.40
2012,04,26,22,59,8.40
2012,04,26,23,00,8.40
2012,04,26,23,01,8.40
2012,04,26,23,02,8.40
2012,04,26,23,03,8.40
2012,04,26,23,04,8.40
2012,04,26,23,05,8.40
2012,04,26,23,06,8.40
2012,04,26,23,07,8.40
2012,04,26,23,08,8.40
2012,04,26,23,09,8.40
2012,04,26,23,10,8.40
2012,04,26,23,11,8.40
2012,04,26,23,12,8.40
2012,04,26,23,13,8.40
2012,04,26,23,14,8.40
2012,04,26,23,15,8.40
2012,04,26,23,16,8.40
2012,04,26,23,17,8.40
2012,04,26,23,18,8.30
2012,04,26,23,19,8.30
2012,04,26,23,20,8.30
2012,04,26,23,21,8.30
2012,04,26,23,22,8.30
2012,04,26,23,23,8.30
2012,04,26,23,24,8.30
2012,04,26,23,25,8.30
2012,04,26,23,26,8.30
2012,04,26,23,27,8.30
2012,04,26,23,28,8.30
2012,04,26,23,29,8.30
2012,04,26,23,30,8.30
2012,04,26,23,31,8.30
2012,04,26,23,32,8.30
2012,04,26,23,33,8.30
2012,04,26,23,34,8.30
2012,04,26,23,35,8.30
2012,04,26,23,36,8.30
2012,04,26,23,37,8.30
2012,04,26,23,38,8.30
2012,04,26,23,39,8.30
2012,04,26,23,40,8.30
2012,04,26,23,41,8.20
2012,04,26,23,42,8.20
2012,04,26,23,43,8.20
2012,04,26,23,44,8.20
2012,04,26,23,45,8.20
2012,04,26,23,46,8.20
2012,04,26,23,47,8.20
2012,04,26,23,48,8.20
2012,04,26,23,49,8.20
2012,04,26,23,50,8.20
2012,04,26,23,51,8.20
2012,04,26,23,52,8.10
2012,04,26,23,53,8.10
2012,04,26,23,54,8.10
2012,04,26,23,55,8.10
2012,04,26,23,56,8.10
2012,04,26,23,57,8.10
2012,04,26,23,58,8.10
2012,04,26,23,59,8.10
